カタログに戻る

ORBCOMM FM 22

運用中通信LEO
NORAD 25476·PAYLOAD·🇺🇸 United States

打ち上げ Sep 23, 1998 から Cape Canaveral Space Force Station

Loading…

次のパス (今後24時間)

TLE

最新Source: Space-Track

元期: Sep 14, 2026, 01:55 UTC

1 25476U 98053B   26257.08042993  .00000546  00000-0  21856-3 0  9996
2 25476  45.0066 268.8675 0004751 311.5177  48.5264 14.39594864462656

AllMySatでORBCOMM FM 22をリアルタイム追跡

Download on the App Store